[[{"header":{"parameterUnit":"m.s-1","parameterCategory":1,"la1":30.2991,"la2":30.254,"lo1":-89.0895,"lo2":-89.0444,"dy":0.0017,"dx":0.0017,"nx":28,"ny":28,"refTime":"2025-06-19T03:00:00:Z","depth":0,"parameterNumber":2,"parameterNumberName":"U-component_of_WINDS"},"data":[0,0,0,0,0,0,0,0,0,0,0,0,0,0,0,0,0,0,0,0,0,0,0,0,0,0,0,0,0,0,0,0,0,0,0,0,0,0,0,0,0,0,0,0,0,0,0,0,0,0,0,0,0,0,0,0,0,0,2.1819,2.182,0,2.1948,2.195,2.1951,2.198,2.1979,2.1978,2.1977,2.2112,2.2116,2.212,0,0,0,0,0,0,0,0,0,0,0,0,0,2.1598,2.1602,2.1818,2.182,2.1822,2.1948,2.195,2.1951,2.198,2.1979,2.1978,2.1977,2.211,2.2115,2.2121,0,0,0,0,0,0,0,0,0,0,0,0,0,2.1707,2.1603,2.1818,2.1851,2.1855,2.1948,2.195,2.1952,2.198,2.1979,2.1978,2.1976,2.2109,2.2115,2.2122,2.219,0,0,2.2142,2.2145,0,0,0,0,0,0,0,0,2.1701,2.1715,2.1845,2.1849,2.1854,2.1946,2.1921,2.2032,2.1981,2.1933,2.1977,2.1976,2.2058,2.2069,2.2096,2.2197,2.2202,2.2142,2.2146,2.2149,2.2151,0,0,0,0,0,0,0,2.1693,2.171,2.187,2.1847,2.1852,2.186,2.1874,2.1942,2.2002,2.1937,2.194,2.1954,2.206,2.209,2.2099,2.2204,2.2142,2.2148,2.2152,2.2155,2.2368,2.237,0,0,0,0,0,0,2.168,2.1703,2.1866,2.1874,2.1772,2.1865,2.1881,2.1918,2.2001,2.2012,2.1955,2.1955,2.2079,2.2092,2.2104,2.219,2.2149,2.2156,2.2159,2.2366,2.2368,2.237,0,0,0,0,0,0,2.1675,2.1694,2.186,2.1789,2.1811,2.1871,2.1912,2.1922,2.1951,2.2015,2.2026,2.1974,2.2078,2.2095,2.2169,2.2195,2.2159,2.2165,2.2364,2.2367,2.2369,2.2361,0,0,0,0,0,0,2.1668,2.1692,2.1718,2.179,2.1815,2.1922,2.1914,2.1925,2.1962,2.1963,2.2035,2.2046,2.2079,2.2158,2.2175,2.2203,2.217,2.2362,2.2366,2.2369,2.2359,2.2363,2.2366,0,0,0,0,0,2.166,2.1711,2.1719,2.1739,2.1848,2.1923,2.1938,2.1973,2.1964,2.1991,2.2032,2.2044,2.219,2.2166,2.2185,2.2215,2.2361,2.2365,2.2368,2.2358,2.2362,2.2366,0,0,0,0,0,0,2.1641,2.1721,2.1731,2.1806,2.1857,2.1928,2.1963,2.1977,2.2033,2.2031,2.2074,2.209,2.2161,2.2196,2.2168,2.2286,2.2275,2.2283,2.226,2.2265,2.2269,2.2258,2.2175,0,0,0,0,0,2.1645,2.1699,2.1766,2.1826,2.1851,2.1903,2.1937,2.196,2.2015,2.2037,2.2084,2.2138,2.2196,2.2233,2.229,2.2365,2.2381,2.2396,2.2399,2.2402,2.2407,2.2449,2.2456,2.2383,2.2383,2.2382,0,0,2.1655,2.1705,2.1736,2.1823,2.1866,2.192,2.1921,2.1979,2.202,2.2046,2.2118,2.2154,2.2217,2.2292,2.2327,2.2323,2.2432,2.2406,2.2408,2.2412,2.2454,2.2461,2.2467,2.2385,2.2385,2.2384,0,0,2.17,2.1744,2.1798,2.1841,2.1905,2.194,2.1953,2.2022,2.2046,2.2119,2.214,2.2191,2.229,2.2333,2.2369,2.2432,2.2444,2.245,2.2467,2.2508,2.2513,2.2519,2.254,2.2548,2.2455,2.2455,2.2455,0,2.1703,2.1786,2.1824,2.1881,2.1918,2.1945,2.2001,2.2041,2.2121,2.2147,2.2141,2.2266,2.2311,2.2396,2.2411,2.2439,2.2455,2.244,2.2509,2.2515,2.2521,2.2542,2.255,2.2456,2.2456,2.2456,2.2456,0,2.1787,2.1844,2.188,2.1956,2.1999,2.2055,2.2102,2.214,2.216,2.2195,2.2269,2.2324,2.2392,2.2414,2.2435,2.2503,2.2498,2.2501,2.249,2.2527,2.2547,2.2556,2.2456,2.2456,2.2456,2.2456,0,0,2.182,2.1918,2.193,2.1965,2.204,2.2085,2.2143,2.2209,2.2241,2.2296,2.2345,2.2429,2.2432,2.2472,2.2498,2.2534,2.258,2.2533,2.2535,2.2538,2.2657,2.2653,2.2662,2.259,2.2591,2.2593,2.2651,0,2.1873,2.1976,2.2013,2.2098,2.2151,2.2178,2.2229,2.228,2.2315,2.2366,2.2405,2.2463,2.2463,2.2487,2.2524,2.2566,2.2604,2.2563,2.2635,2.2637,2.2616,2.2673,2.2669,2.2721,2.266,2.2661,2.2662,0,2.1947,2.2003,2.2093,2.2161,2.2185,2.2229,2.2293,2.2342,2.2401,2.2424,2.2469,2.2493,2.2555,2.2542,2.2628,2.2599,2.2632,2.2657,2.266,2.2667,2.265,2.2679,2.2739,2.2746,2.2675,2.2674,2.2673,0,2.1961,2.2059,2.2125,2.2155,2.2236,2.2267,2.2302,2.236,2.2398,2.2455,2.248,2.2543,2.2577,2.2626,2.2667,2.2654,2.2749,2.2739,2.2769,2.2768,2.2786,2.2784,2.285,2.281,2.281,2.281,2.281,0,2.2015,2.2068,2.2132,2.2173,2.2234,2.2277,2.2337,2.2374,2.2426,2.2475,2.2503,2.2548,2.26,2.2652,2.2685,2.2751,2.2767,2.2787,2.2794,2.2783,2.278,2.2803,2.28,2.2812,2.2811,2.2811,2.2811,0,2.2039,2.2084,2.2158,2.223,2.2249,2.2291,2.2352,2.2393,2.243,2.2492,2.2509,2.2566,2.2629,2.2675,2.2757,2.2779,2.2849,2.2858,2.2828,2.2832,2.2859,2.2855,2.2941,2.2954,2.2906,2.2906,2.2906,0,2.2069,2.2111,2.2187,2.2222,2.2257,2.2313,2.2351,2.2396,2.2435,2.2506,2.2539,2.2604,2.2658,2.2758,2.2807,2.287,2.2879,2.2905,2.2889,2.2876,2.2878,2.2874,2.2878,2.2906,2.2907,2.2907,2.2907,0,2.2117,2.2138,2.2192,2.2255,2.2301,2.2353,2.2405,2.2432,2.2486,2.2529,2.2593,2.2635,2.2719,2.2783,2.2851,2.2888,2.2907,2.2912,2.2922,2.291,2.2891,2.29,2.2833,2.291,2.2909,2.2909,2.2909,2.2909,2.2145,2.2183,2.2243,2.2303,2.2347,2.2395,2.2437,2.2479,2.2534,2.2605,2.2629,2.2695,2.2755,2.2848,2.2886,2.2939,2.2938,2.2953,2.2957,2.2959,2.2958,2.2884,2.2952,2.2952,2.2952,2.2952,2.2952,0,2.2193,2.2233,2.2288,2.236,2.2408,2.2422,2.2481,2.2519,2.2578,2.2632,2.2684,2.2759,2.2822,2.2877,2.2942,2.2974,2.2984,2.299,2.2987,2.2995,2.2955,2.2939,2.298,2.298,2.298,2.298,2.298,2.298,2.2223,2.2289,2.2317,2.2405,2.2446,2.2511,2.2543,2.2588,2.2631,2.2713,2.2765,2.2801,2.2856,2.2925,2.2984,2.2998,2.302,2.3023,2.304,2.3001,2.2998,2.2994,2.298,2.3028,2.3028,2.3075,2.3075,2.3076]},{"header":{"parameterUnit":"m.s-1","parameterCategory":1,"la1":30.2991,"la2":30.254,"lo1":-89.0895,"lo2":-89.0444,"dy":0.0017,"dx":0.0017,"nx":28,"ny":28,"refTime":"2025-06-19T03:00:00:Z","depth":0,"parameterNumber":3,"parameterNumberName":"V-component_of_WINDS"},"data":[0,0,0,0,0,0,0,0,0,0,0,0,0,0,0,0,0,0,0,0,0,0,0,0,0,0,0,0,0,0,0,0,0,0,0,0,0,0,0,0,0,0,0,0,0,0,0,0,0,0,0,0,0,0,0,0,0,0,4.0294,4.0294,0,4.0311,4.0311,4.0311,4.0278,4.0277,4.0276,4.0275,4.0289,4.029,4.0291,0,0,0,0,0,0,0,0,0,0,0,0,0,4.0231,4.0232,4.0294,4.0294,4.0295,4.0311,4.0311,4.0311,4.0278,4.0277,4.0275,4.0274,4.0288,4.029,4.0292,0,0,0,0,0,0,0,0,0,0,0,0,0,4.0254,4.0233,4.0294,4.028,4.0279,4.0311,4.0311,4.0311,4.0278,4.0277,4.0275,4.0274,4.0288,4.029,4.0292,4.0337,0,0,4.0298,4.0299,0,0,0,0,0,0,0,0,4.0253,4.0256,4.0282,4.0281,4.028,4.0291,4.0294,4.032,4.0279,4.0278,4.0275,4.0273,4.029,4.0292,4.0299,4.0338,4.0338,4.0298,4.03,4.03,4.0301,0,0,0,0,0,0,0,4.0251,4.0255,4.0301,4.0282,4.0281,4.0272,4.0273,4.0298,4.0293,4.0278,4.0276,4.0279,4.029,4.0297,4.0299,4.0338,4.0298,4.03,4.0301,4.0302,4.0414,4.0416,0,0,0,0,0,0,4.0252,4.0254,4.03,4.0301,4.0262,4.0274,4.0276,4.0289,4.0293,4.0292,4.028,4.0277,4.0294,4.0296,4.0299,4.0352,4.03,4.0302,4.0304,4.0413,4.0415,4.0417,0,0,0,0,0,0,4.0251,4.0256,4.0299,4.0277,4.0282,4.0277,4.0292,4.029,4.0297,4.0294,4.0293,4.0289,4.0293,4.0296,4.0328,4.0352,4.0303,4.0305,4.0411,4.0413,4.0416,4.0458,0,0,0,0,0,0,4.0249,4.0256,4.0274,4.0278,4.0283,4.0329,4.0293,4.0291,4.0301,4.0297,4.0302,4.0301,4.0292,4.0325,4.033,4.0354,4.0307,4.0408,4.0412,4.0415,4.0454,4.0462,4.0468,0,0,0,0,0,4.0247,4.0284,4.0275,4.0281,4.0306,4.033,4.0333,4.0323,4.0303,4.0321,4.0319,4.0301,4.0349,4.0328,4.0334,4.0359,4.0407,4.0411,4.0415,4.0451,4.046,4.0468,0,0,0,0,0,0,4.0282,4.0285,4.0274,4.0314,4.0323,4.0325,4.0346,4.0333,4.0346,4.0342,4.0327,4.0329,4.0363,4.0364,4.0341,4.0402,4.0374,4.0379,4.04,4.0409,4.0415,4.0414,4.0308,0,0,0,0,0,4.0295,4.0316,4.0316,4.0352,4.0356,4.0351,4.0361,4.0353,4.036,4.0363,4.0363,4.037,4.0387,4.0398,4.0413,4.0455,4.0455,4.0474,4.0481,4.0487,4.0491,4.0513,4.0521,4.0429,4.0429,4.0429,0,0,4.0321,4.0325,4.0339,4.0359,4.0364,4.0385,4.0354,4.0377,4.0392,4.0366,4.0396,4.0397,4.0403,4.044,4.0456,4.0442,4.0516,4.0492,4.0496,4.0497,4.0517,4.0526,4.0534,4.0432,4.0432,4.0431,0,0,4.0379,4.0384,4.0414,4.042,4.0429,4.0425,4.0432,4.0437,4.0436,4.0467,4.0447,4.0465,4.0494,4.0499,4.0506,4.0566,4.055,4.0572,4.0607,4.0628,4.0635,4.0641,4.0663,4.067,4.0576,4.0576,4.0576,0,4.0409,4.0441,4.0431,4.0456,4.0465,4.0444,4.0473,4.0479,4.0492,4.0499,4.0483,4.0519,4.0522,4.056,4.0574,4.0581,4.0588,4.0571,4.0635,4.0641,4.0647,4.0667,4.0675,4.0579,4.0579,4.0578,4.0578,0,4.0478,4.0501,4.0524,4.0538,4.055,4.0577,4.057,4.0583,4.0573,4.0571,4.0601,4.0605,4.062,4.0628,4.0619,4.0664,4.0655,4.0638,4.0609,4.0659,4.0677,4.0685,4.0582,4.0581,4.0581,4.058,0,0,4.0558,4.0567,4.0576,4.0582,4.059,4.0606,4.0632,4.0648,4.0659,4.0669,4.069,4.0715,4.0699,4.0707,4.0698,4.0717,4.0764,4.0696,4.0696,4.0708,4.0813,4.0826,4.0835,4.0753,4.0755,4.0756,4.0813,0,4.0615,4.0661,4.0653,4.0697,4.0717,4.0697,4.0719,4.0726,4.0725,4.0741,4.0738,4.0757,4.0734,4.0739,4.0756,4.0754,4.0784,4.075,4.0772,4.0773,4.077,4.0845,4.0859,4.0912,4.082,4.0821,4.0822,0,4.0688,4.0701,4.0748,4.0753,4.0761,4.0782,4.0795,4.0811,4.0819,4.0816,4.0825,4.0813,4.0837,4.0809,4.0843,4.082,4.0828,4.0828,4.083,4.0831,4.08,4.0847,4.0929,4.0937,4.0833,4.0832,4.0832,0,4.0741,4.077,4.0802,4.0808,4.0815,4.083,4.0833,4.0839,4.0849,4.0861,4.0867,4.0882,4.0889,4.09,4.0892,4.0872,4.0927,4.0898,4.0924,4.0925,4.0936,4.0935,4.1019,4.0943,4.0943,4.0942,4.0942,0,4.0805,4.0834,4.0826,4.0845,4.0877,4.0867,4.0898,4.0899,4.0905,4.0923,4.0907,4.0924,4.0912,4.0928,4.0922,4.095,4.0954,4.0952,4.095,4.0953,4.0953,4.0958,4.0954,4.0945,4.0944,4.0944,4.0943,0,4.0869,4.0865,4.0898,4.0902,4.0904,4.0927,4.093,4.0948,4.0945,4.0969,4.0974,4.097,4.0988,4.0981,4.1,4.0996,4.1032,4.1025,4.103,4.1028,4.1055,4.1052,4.1144,4.1155,4.1072,4.1073,4.1074,0,4.091,4.0932,4.0939,4.0951,4.0955,4.0975,4.0985,4.0976,4.0987,4.0998,4.1014,4.1031,4.1044,4.1074,4.1072,4.1087,4.108,4.1111,4.1082,4.1084,4.108,4.1078,4.108,4.1117,4.1118,4.1118,4.1119,0,4.0982,4.0979,4.0996,4.1012,4.1025,4.1037,4.1047,4.1057,4.1049,4.1062,4.1081,4.1092,4.1112,4.1129,4.1142,4.1144,4.113,4.1128,4.1135,4.1139,4.114,4.1139,4.1045,4.1126,4.1125,4.1125,4.1124,4.1124,4.1035,4.1054,4.1062,4.1081,4.1088,4.1098,4.1115,4.1115,4.1131,4.1147,4.1141,4.1163,4.1169,4.1185,4.119,4.1206,4.1194,4.1204,4.1206,4.1209,4.1212,4.1138,4.1209,4.1209,4.1208,4.1208,4.1208,0,4.1107,4.1111,4.1129,4.1144,4.1159,4.1145,4.1156,4.1169,4.1189,4.1197,4.121,4.1232,4.1249,4.1248,4.1263,4.1277,4.127,4.1281,4.1279,4.128,4.1223,4.1215,4.1286,4.1286,4.1286,4.1286,4.1286,4.1286,4.1145,4.1176,4.1174,4.1208,4.1212,4.1235,4.1242,4.1251,4.1257,4.1282,4.1296,4.1297,4.1301,4.1316,4.1331,4.133,4.1336,4.1349,4.1346,4.1292,4.1284,4.1277,4.127,4.135,4.1351,4.1402,4.1402,4.1403]}]]